Time,TemperatureF,DewpointF,PressureIn,WindDirection,WindDirectionDegrees,WindSpeedMPH,WindSpeedGustMPH,Humidity,HourlyPrecipIn,Conditions,Clouds,dailyrainin,SoftwareType,DateUTC
2013-03-10 00:00:00,31.7,23.0,30.05,ENE,68,0.0,0.0,70,0.00,,,0.00,WUHU216HW,2013-03-10 05:00:00,
2013-03-10 00:05:00,31.5,22.9,30.05,ENE,68,0.4,0.4,70,0.00,,,0.00,WUHU216HW,2013-03-10 05:05:00,
2013-03-10 00:10:00,31.3,23.1,30.05,ENE,68,0.0,0.4,71,0.00,,,0.00,WUHU216HW,2013-03-10 05:10:00,
2013-03-10 00:15:00,31.1,22.9,30.05,ENE,68,0.0,0.4,71,0.00,,,0.00,WUHU216HW,2013-03-10 05:15:00,
2013-03-10 00:20:00,31.0,22.7,30.05,ENE,68,0.0,0.4,71,0.00,,,0.00,WUHU216HW,2013-03-10 05:20:00,
2013-03-10 00:25:00,30.8,23.1,30.05,ENE,68,0.0,0.4,73,0.00,,,0.00,WUHU216HW,2013-03-10 05:25:00,
2013-03-10 00:30:00,30.8,23.1,30.05,ENE,68,0.0,0.2,73,0.00,,,0.00,WUHU216HW,2013-03-10 05:30:00,
2013-03-10 00:35:00,30.8,23.1,30.05,ENE,68,0.0,0.2,73,0.00,,,0.00,WUHU216HW,2013-03-10 05:35:00,
2013-03-10 00:40:00,30.6,23.0,30.05,ENE,68,0.0,0.0,73,0.00,,,0.00,WUHU216HW,2013-03-10 05:40:00,
2013-03-10 00:45:00,30.6,23.0,30.05,ENE,68,0.0,0.0,73,0.00,,,0.00,WUHU216HW,2013-03-10 05:45:00,
2013-03-10 00:50:00,30.6,23.0,30.05,ENE,68,0.0,0.0,73,0.00,,,0.00,WUHU216HW,2013-03-10 05:50:00,
2013-03-10 00:55:00,30.6,23.0,30.05,ENE,68,0.0,0.0,73,0.00,,,0.00,WUHU216HW,2013-03-10 05:55:00,
2013-03-10 01:00:00,30.4,23.0,30.05,ENE,68,0.0,0.4,74,0.00,,,0.00,WUHU216HW,2013-03-10 06:00:00,
2013-03-10 01:05:00,30.4,23.0,30.05,ENE,68,0.0,0.4,74,0.00,,,0.00,WUHU216HW,2013-03-10 06:05:00,
2013-03-10 01:10:00,30.2,22.9,30.04,ENE,68,0.0,0.0,74,0.00,,,0.00,WUHU216HW,2013-03-10 06:10:00,
2013-03-10 01:15:00,30.1,22.8,30.05,ENE,68,0.0,0.0,74,0.00,,,0.00,WUHU216HW,2013-03-10 06:15:00,
2013-03-10 01:20:00,30.1,22.8,30.05,ENE,68,0.0,0.0,74,0.00,,,0.00,WUHU216HW,2013-03-10 06:20:00,
2013-03-10 01:25:00,29.9,22.9,30.05,ENE,68,0.0,0.0,75,0.00,,,0.00,WUHU216HW,2013-03-10 06:25:00,
2013-03-10 01:30:00,29.9,22.9,30.05,ENE,68,0.0,0.0,75,0.00,,,0.00,WUHU216HW,2013-03-10 06:30:00,
2013-03-10 01:35:00,29.9,22.9,30.05,ENE,68,0.0,0.0,75,0.00,,,0.00,WUHU216HW,2013-03-10 06:35:00,
2013-03-10 01:40:00,29.7,22.7,30.05,ENE,68,0.4,0.7,75,0.00,,,0.00,WUHU216HW,2013-03-10 06:40:00,
2013-03-10 01:45:00,29.5,22.5,30.05,ENE,68,0.0,0.7,75,0.00,,,0.00,WUHU216HW,2013-03-10 06:45:00,
2013-03-10 01:50:00,29.5,22.5,30.05,ENE,68,0.0,0.4,75,0.00,,,0.00,WUHU216HW,2013-03-10 06:50:00,
2013-03-10 01:55:00,29.3,22.7,30.04,ENE,68,0.0,0.0,76,0.00,,,0.00,WUHU216HW,2013-03-10 06:55:00,
2013-03-10 03:00:00,29.2,22.2,30.04,ENE,68,0.0,0.0,75,0.00,,,0.00,WUHU216HW,2013-03-10 07:00:00,
2013-03-10 03:05:00,29.2,22.2,30.04,ENE,68,0.0,0.0,75,0.00,,,0.00,WUHU216HW,2013-03-10 07:05:00,
2013-03-10 03:10:00,29.2,22.5,30.04,ENE,68,0.0,0.0,76,0.00,,,0.00,WUHU216HW,2013-03-10 07:10:00,
2013-03-10 03:15:00,29.2,22.2,30.04,ENE,68,0.0,0.0,75,0.00,,,0.00,WUHU216HW,2013-03-10 07:15:00,
2013-03-10 03:20:00,29.2,22.5,30.04,ENE,68,0.0,0.0,76,0.00,,,0.00,WUHU216HW,2013-03-10 07:20:00,
2013-03-10 03:25:00,29.2,22.5,30.04,ENE,68,0.0,0.4,76,0.00,,,0.00,WUHU216HW,2013-03-10 07:25:00,
2013-03-10 03:30:00,29.0,22.7,30.04,ENE,68,0.0,0.4,77,0.00,,,0.00,WUHU216HW,2013-03-10 07:30:00,
2013-03-10 03:35:00,29.0,22.3,30.04,ENE,68,0.0,0.0,76,0.00,,,0.00,WUHU216HW,2013-03-10 07:35:00,
2013-03-10 03:40:00,28.8,22.5,30.04,ENE,68,0.0,0.0,77,0.00,,,0.00,WUHU216HW,2013-03-10 07:40:00,
2013-03-10 03:45:00,28.8,22.5,30.04,ENE,68,0.0,0.0,77,0.00,,,0.00,WUHU216HW,2013-03-10 07:45:00,
2013-03-10 03:50:00,28.8,22.8,30.04,ENE,68,0.0,0.0,78,0.00,,,0.00,WUHU216HW,2013-03-10 07:50:00,
2013-03-10 03:55:00,28.8,23.1,30.04,ENE,68,0.0,0.0,79,0.00,,,0.00,WUHU216HW,2013-03-10 07:55:00,
2013-03-10 04:00:00,28.6,22.6,30.04,ENE,68,0.0,0.0,78,0.00,,,0.00,WUHU216HW,2013-03-10 08:00:00,
2013-03-10 04:05:00,28.6,22.3,30.04,ENE,68,0.0,0.0,77,0.00,,,0.00,WUHU216HW,2013-03-10 08:05:00,
2013-03-10 04:10:00,28.6,22.6,30.03,ENE,68,0.4,0.4,78,0.00,,,0.00,WUHU216HW,2013-03-10 08:10:00,
2013-03-10 04:15:00,28.8,22.8,30.03,ENE,68,0.0,0.4,78,0.00,,,0.00,WUHU216HW,2013-03-10 08:15:00,
2013-03-10 04:20:00,28.8,22.8,30.04,ENE,68,0.2,0.4,78,0.00,,,0.00,WUHU216HW,2013-03-10 08:20:00,
2013-03-10 04:25:00,28.6,22.6,30.03,ENE,68,0.0,0.4,78,0.00,,,0.00,WUHU216HW,2013-03-10 08:25:00,
2013-03-10 04:30:00,28.4,22.4,30.03,ENE,68,0.0,0.4,78,0.00,,,0.00,WUHU216HW,2013-03-10 08:30:00,
2013-03-10 04:35:00,28.4,22.8,30.03,ENE,68,0.0,0.0,79,0.00,,,0.00,WUHU216HW,2013-03-10 08:35:00,
2013-03-10 04:40:00,28.4,22.8,30.03,ENE,68,0.0,0.4,79,0.00,,,0.00,WUHU216HW,2013-03-10 08:40:00,
2013-03-10 04:45:00,28.4,22.8,30.03,ENE,68,0.0,0.4,79,0.00,,,0.00,WUHU216HW,2013-03-10 08:45:00,
2013-03-10 04:50:00,28.4,22.4,30.03,ENE,68,0.0,0.0,78,0.00,,,0.00,WUHU216HW,2013-03-10 08:50:00,
2013-03-10 04:55:00,28.4,22.8,30.02,ENE,68,0.0,0.0,79,0.00,,,0.00,WUHU216HW,2013-03-10 08:55:00,
2013-03-10 05:00:00,28.3,22.6,30.02,ENE,68,0.0,0.0,79,0.00,,,0.00,WUHU216HW,2013-03-10 09:00:00,
2013-03-10 05:05:00,28.3,22.6,30.02,ENE,68,0.0,0.4,79,0.00,,,0.00,WUHU216HW,2013-03-10 09:05:00,
2013-03-10 05:10:00,28.3,22.6,30.02,ENE,68,0.2,0.4,79,0.00,,,0.00,WUHU216HW,2013-03-10 09:10:00,
2013-03-10 05:15:00,28.1,22.4,30.02,ENE,68,0.0,0.2,79,0.00,,,0.00,WUHU216HW,2013-03-10 09:15:00,
2013-03-10 05:20:00,28.1,22.7,30.02,ENE,68,0.0,0.2,80,0.00,,,0.00,WUHU216HW,2013-03-10 09:20:00,
2013-03-10 05:25:00,27.9,22.5,30.02,ENE,68,0.0,0.0,80,0.00,,,0.00,WUHU216HW,2013-03-10 09:25:00,
2013-03-10 05:30:00,27.9,22.5,30.02,ENE,68,0.0,0.0,80,0.00,,,0.00,WUHU216HW,2013-03-10 09:30:00,
2013-03-10 05:35:00,27.9,22.5,30.02,ENE,68,0.0,0.0,80,0.00,,,0.00,WUHU216HW,2013-03-10 09:35:00,
2013-03-10 05:40:00,27.7,22.3,30.02,ENE,68,0.0,0.2,80,0.00,,,0.00,WUHU216HW,2013-03-10 09:40:00,
2013-03-10 05:45:00,27.7,22.3,30.02,ENE,68,0.0,0.2,80,0.00,,,0.00,WUHU216HW,2013-03-10 09:45:00,
2013-03-10 05:50:00,27.7,22.3,30.02,ENE,68,0.0,0.7,80,0.00,,,0.00,WUHU216HW,2013-03-10 09:50:00,
2013-03-10 05:55:00,27.7,22.6,30.02,ENE,68,0.2,0.9,81,0.00,,,0.00,WUHU216HW,2013-03-10 09:55:00,
2013-03-10 06:00:00,27.7,22.6,30.02,WNW,293,1.1,1.1,81,0.00,,,0.00,WUHU216HW,2013-03-10 10:00:00,
2013-03-10 06:05:00,27.7,22.6,30.02,West,270,0.0,1.1,81,0.00,,,0.00,WUHU216HW,2013-03-10 10:05:00,
2013-03-10 06:10:00,27.7,22.6,30.02,West,270,0.0,1.1,81,0.00,,,0.00,WUHU216HW,2013-03-10 10:10:00,
2013-03-10 06:15:00,27.7,22.6,30.03,NNW,338,0.4,1.1,81,0.00,,,0.00,WUHU216HW,2013-03-10 10:15:00,
2013-03-10 06:20:00,27.5,22.4,30.02,NNW,338,0.0,1.1,81,0.00,,,0.00,WUHU216HW,2013-03-10 10:20:00,
2013-03-10 06:25:00,27.4,22.2,30.02,NNW,338,0.0,0.4,81,0.00,,,0.00,WUHU216HW,2013-03-10 10:25:00,
2013-03-10 06:30:00,27.2,22.1,30.03,NNW,338,0.0,0.0,81,0.00,,,0.00,WUHU216HW,2013-03-10 10:30:00,
2013-03-10 06:35:00,27.2,22.1,30.02,NNW,338,0.0,0.0,81,0.00,,,0.00,WUHU216HW,2013-03-10 10:35:00,
2013-03-10 06:40:00,27.2,22.1,30.02,NNW,338,0.0,0.0,81,0.00,,,0.00,WUHU216HW,2013-03-10 10:40:00,
2013-03-10 06:45:00,27.2,22.1,30.02,NNW,338,0.0,0.0,81,0.00,,,0.00,WUHU216HW,2013-03-10 10:45:00,
2013-03-10 06:50:00,27.2,22.1,30.03,NNW,338,0.0,0.0,81,0.00,,,0.00,WUHU216HW,2013-03-10 10:50:00,
2013-03-10 06:55:00,27.2,22.3,30.03,NNW,338,0.0,0.0,82,0.00,,,0.00,WUHU216HW,2013-03-10 10:55:00,
2013-03-10 07:00:00,27.2,22.7,30.03,NNW,338,0.0,0.0,83,0.00,,,0.00,WUHU216HW,2013-03-10 11:00:00,
2013-03-10 07:05:00,27.2,22.7,30.03,NE,45,0.0,0.0,83,0.00,,,0.00,WUHU216HW,2013-03-10 11:05:00,
2013-03-10 07:10:00,27.0,22.5,30.03,NE,45,0.0,0.0,83,0.00,,,0.00,WUHU216HW,2013-03-10 11:10:00,
2013-03-10 07:15:00,27.0,22.5,30.03,NE,45,0.0,0.0,83,0.00,,,0.00,WUHU216HW,2013-03-10 11:15:00,
2013-03-10 07:20:00,27.0,22.5,30.03,NE,45,0.0,0.0,83,0.00,,,0.00,WUHU216HW,2013-03-10 11:20:00,
2013-03-10 07:25:00,27.0,22.1,30.03,NW,315,0.7,0.7,82,0.00,,,0.00,WUHU216HW,2013-03-10 11:25:00,
2013-03-10 07:30:00,27.0,22.5,30.03,NW,315,1.1,1.1,83,0.00,,,0.00,WUHU216HW,2013-03-10 11:30:00,
2013-03-10 07:35:00,26.6,22.2,30.04,NW,315,0.7,1.1,83,0.00,,,0.00,WUHU216HW,2013-03-10 11:35:00,
2013-03-10 07:40:00,26.6,22.2,30.04,NNW,338,0.0,1.1,83,0.00,,,0.00,WUHU216HW,2013-03-10 11:40:00,
2013-03-10 07:45:00,26.5,22.2,30.04,North,0,0.0,0.9,84,0.00,,,0.00,WUHU216HW,2013-03-10 11:45:00,
2013-03-10 07:50:00,26.5,22.2,30.04,North,0,0.0,0.0,84,0.00,,,0.00,WUHU216HW,2013-03-10 11:50:00,
2013-03-10 07:55:00,26.5,22.5,30.04,NNE,23,0.0,0.0,85,0.00,,,0.00,WUHU216HW,2013-03-10 11:55:00,
2013-03-10 08:00:00,26.5,22.2,30.04,NNE,23,0.0,0.4,84,0.00,,,0.00,WUHU216HW,2013-03-10 12:00:00,
2013-03-10 08:05:00,26.6,22.4,30.04,West,270,0.0,0.4,84,0.00,,,0.00,WUHU216HW,2013-03-10 12:05:00,
2013-03-10 08:10:00,26.8,22.3,30.04,West,270,0.0,0.7,83,0.00,,,0.00,WUHU216HW,2013-03-10 12:10:00,
2013-03-10 08:15:00,27.0,22.5,30.04,West,270,0.0,0.7,83,0.00,,,0.00,WUHU216HW,2013-03-10 12:15:00,
2013-03-10 08:20:00,27.0,22.5,30.04,West,270,0.0,0.2,83,0.00,,,0.00,WUHU216HW,2013-03-10 12:20:00,
2013-03-10 08:25:00,27.0,22.5,30.04,West,270,0.0,0.2,83,0.00,,,0.00,WUHU216HW,2013-03-10 12:25:00,
2013-03-10 08:30:00,27.0,22.5,30.04,West,270,0.0,0.4,83,0.00,,,0.00,WUHU216HW,2013-03-10 12:30:00,
2013-03-10 08:35:00,27.4,23.1,30.05,West,270,0.2,0.4,84,0.00,,,0.00,WUHU216HW,2013-03-10 12:35:00,
2013-03-10 08:40:00,27.4,23.1,30.04,West,270,0.0,0.4,84,0.00,,,0.00,WUHU216HW,2013-03-10 12:40:00,
2013-03-10 08:46:00,27.7,23.5,30.04,West,270,0.0,0.4,84,0.00,,,0.00,WUHU216HW,2013-03-10 12:46:00,
2013-03-10 08:51:00,27.9,23.4,30.05,West,270,0.0,0.0,83,0.00,,,0.00,WUHU216HW,2013-03-10 12:51:00,
2013-03-10 08:56:00,28.4,24.2,30.05,West,270,0.0,0.0,84,0.00,,,0.00,WUHU216HW,2013-03-10 12:56:00,
2013-03-10 09:01:00,29.2,25.2,30.05,West,270,0.0,0.2,85,0.00,,,0.00,WUHU216HW,2013-03-10 13:01:00,
2013-03-10 09:06:00,29.7,25.5,30.04,West,270,0.0,0.2,84,0.00,,,0.00,WUHU216HW,2013-03-10 13:06:00,
2013-03-10 09:11:00,30.2,26.0,30.04,West,270,0.0,0.4,84,0.00,,,0.00,WUHU216HW,2013-03-10 13:11:00,
2013-03-10 09:16:00,30.8,26.6,30.04,West,270,0.0,0.4,84,0.00,,,0.00,WUHU216HW,2013-03-10 13:16:00,
2013-03-10 09:21:00,31.3,27.1,30.04,West,270,0.0,0.9,84,0.00,,,0.00,WUHU216HW,2013-03-10 13:21:00,
2013-03-10 09:26:00,32.2,27.6,30.05,NW,315,1.8,1.8,83,0.00,,,0.00,WUHU216HW,2013-03-10 13:26:00,
2013-03-10 09:31:00,32.9,28.0,30.05,NW,315,0.0,1.8,82,0.00,,,0.00,WUHU216HW,2013-03-10 13:31:00,
2013-03-10 09:36:00,33.3,28.1,30.05,NW,315,0.0,1.8,81,0.00,,,0.00,WUHU216HW,2013-03-10 13:36:00,
2013-03-10 09:41:00,33.5,28.5,30.05,NW,315,0.2,0.9,82,0.00,,,0.00,WUHU216HW,2013-03-10 13:41:00,
2013-03-10 09:46:00,33.7,28.4,30.05,NW,315,0.0,0.9,81,0.00,,,0.00,WUHU216HW,2013-03-10 13:46:00,
2013-03-10 09:51:00,33.7,28.1,30.06,NW,315,0.0,0.4,80,0.00,,,0.00,WUHU216HW,2013-03-10 13:51:00,
2013-03-10 09:56:00,33.8,28.3,30.06,NNE,23,0.0,0.0,80,0.00,,,0.00,WUHU216HW,2013-03-10 13:56:00,
2013-03-10 10:01:00,34.2,28.6,30.06,NNE,23,0.4,0.4,80,0.00,,,0.00,WUHU216HW,2013-03-10 14:01:00,
2013-03-10 10:06:00,34.9,29.3,30.06,NNW,338,0.0,0.4,80,0.00,,,0.00,WUHU216HW,2013-03-10 14:06:00,
2013-03-10 10:11:00,35.5,29.5,30.06,NNW,338,0.0,0.4,79,0.00,,,0.00,WUHU216HW,2013-03-10 14:11:00,
2013-03-10 10:16:00,36.0,30.1,30.06,West,270,0.0,0.0,79,0.00,,,0.00,WUHU216HW,2013-03-10 14:16:00,
2013-03-10 10:21:00,36.7,30.8,30.06,West,270,0.4,0.7,79,0.00,,,0.00,WUHU216HW,2013-03-10 14:21:00,
2013-03-10 10:26:00,37.3,31.1,30.06,West,270,0.0,0.7,78,0.00,,,0.00,WUHU216HW,2013-03-10 14:26:00,
2013-03-10 10:31:00,37.6,31.1,30.06,West,270,0.0,0.4,77,0.00,,,0.00,WUHU216HW,2013-03-10 14:31:00,
2013-03-10 10:36:00,37.8,31.2,30.06,West,270,0.0,0.4,77,0.00,,,0.00,WUHU216HW,2013-03-10 14:36:00,
2013-03-10 10:41:00,38.2,31.2,30.06,West,270,0.0,0.4,76,0.00,,,0.00,WUHU216HW,2013-03-10 14:41:00,
2013-03-10 10:46:00,38.3,31.4,30.06,NW,315,0.4,1.1,76,0.00,,,0.00,WUHU216HW,2013-03-10 14:46:00,
2013-03-10 10:51:00,38.5,31.6,30.06,NW,315,0.7,1.1,76,0.00,,,0.00,WUHU216HW,2013-03-10 14:51:00,
2013-03-10 10:56:00,38.5,31.6,30.06,NW,315,0.0,1.1,76,0.00,,,0.00,WUHU216HW,2013-03-10 14:56:00,
2013-03-10 11:01:00,38.7,31.4,30.06,NW,315,0.0,0.7,75,0.00,,,0.00,WUHU216HW,2013-03-10 15:01:00,
2013-03-10 11:06:00,39.1,31.8,30.06,NW,315,0.0,0.0,75,0.00,,,0.00,WUHU216HW,2013-03-10 15:06:00,
2013-03-10 11:11:00,39.2,31.6,30.06,WSW,248,0.4,0.7,74,0.00,,,0.00,WUHU216HW,2013-03-10 15:11:00,
2013-03-10 11:16:00,39.4,31.8,30.06,SW,225,0.0,1.3,74,0.00,,,0.00,WUHU216HW,2013-03-10 15:16:00,
2013-03-10 11:21:00,39.8,32.1,30.06,SW,225,0.0,1.3,74,0.00,,,0.00,WUHU216HW,2013-03-10 15:21:00,
2013-03-10 11:26:00,40.1,32.5,30.06,SW,225,0.0,0.4,74,0.00,,,0.00,WUHU216HW,2013-03-10 15:26:00,
2013-03-10 11:31:00,40.5,32.5,30.06,NW,315,0.7,1.6,73,0.00,,,0.00,WUHU216HW,2013-03-10 15:31:00,
2013-03-10 11:36:00,40.7,32.3,30.06,NW,315,0.2,1.6,72,0.00,,,0.00,WUHU216HW,2013-03-10 15:36:00,
2013-03-10 11:41:00,41.0,32.7,30.05,NW,315,0.0,0.7,72,0.00,,,0.00,WUHU216HW,2013-03-10 15:41:00,
2013-03-10 11:46:00,41.4,32.1,30.05,North,0,0.0,1.1,69,0.00,,,0.00,WUHU216HW,2013-03-10 15:46:00,
2013-03-10 11:51:00,41.9,33.3,30.05,SW,225,0.0,1.1,71,0.00,,,0.00,WUHU216HW,2013-03-10 15:51:00,
2013-03-10 11:56:00,42.5,33.9,30.05,SW,225,0.0,0.4,71,0.00,,,0.00,WUHU216HW,2013-03-10 15:56:00,
2013-03-10 12:01:00,43.0,34.0,30.04,SW,225,0.7,0.9,70,0.00,,,0.00,WUHU216HW,2013-03-10 16:01:00,
2013-03-10 12:06:00,43.4,34.3,30.04,NW,315,0.0,0.9,70,0.00,,,0.00,WUHU216HW,2013-03-10 16:06:00,
2013-03-10 12:11:00,43.4,34.3,30.04,WNW,293,0.0,0.9,70,0.00,,,0.00,WUHU216HW,2013-03-10 16:11:00,
2013-03-10 12:16:00,44.1,35.0,30.04,NW,315,0.4,0.4,70,0.00,,,0.00,WUHU216HW,2013-03-10 16:16:00,
2013-03-10 12:21:00,44.5,34.6,30.04,NNW,338,0.0,0.4,68,0.00,,,0.00,WUHU216HW,2013-03-10 16:21:00,
2013-03-10 12:26:00,45.0,35.1,30.04,NNW,338,0.0,0.4,68,0.00,,,0.00,WUHU216HW,2013-03-10 16:26:00,
2013-03-10 12:31:00,45.7,35.7,30.03,West,270,0.0,0.4,68,0.00,,,0.00,WUHU216HW,2013-03-10 16:31:00,
2013-03-10 12:36:00,46.6,36.3,30.04,NW,315,0.4,0.9,67,0.00,,,0.00,WUHU216HW,2013-03-10 16:36:00,
2013-03-10 12:41:00,47.7,36.9,30.03,West,270,0.0,1.1,66,0.00,,,0.00,WUHU216HW,2013-03-10 16:41:00,
2013-03-10 12:46:00,49.1,37.4,30.03,NNW,338,1.3,1.3,64,0.00,,,0.00,WUHU216HW,2013-03-10 16:46:00,
2013-03-10 12:51:00,50.0,38.4,30.03,NNW,338,1.8,2.0,64,0.00,,,0.00,WUHU216HW,2013-03-10 16:51:00,
2013-03-10 12:56:00,50.9,38.0,30.03,NNW,338,1.3,2.0,61,0.00,,,0.00,WUHU216HW,2013-03-10 16:56:00,
2013-03-10 13:01:00,51.3,33.9,30.03,NNW,338,1.8,2.0,51,0.00,,,0.00,WUHU216HW,2013-03-10 17:01:00,
2013-03-10 13:06:00,51.1,35.9,30.03,NNW,338,1.8,2.0,56,0.00,,,0.00,WUHU216HW,2013-03-10 17:06:00,
2013-03-10 13:11:00,52.0,35.4,30.02,NW,315,0.9,1.8,53,0.00,,,0.00,WUHU216HW,2013-03-10 17:11:00,
2013-03-10 13:16:00,53.5,37.2,30.02,NW,315,0.2,2.5,54,0.00,,,0.00,WUHU216HW,2013-03-10 17:16:00,
2013-03-10 13:21:00,55.3,38.8,30.02,NNW,338,1.1,2.5,54,0.00,,,0.00,WUHU216HW,2013-03-10 17:21:00,
2013-03-10 13:26:00,55.8,36.4,30.02,North,0,0.4,2.0,48,0.00,,,0.00,WUHU216HW,2013-03-10 17:26:00,
2013-03-10 13:31:00,55.8,37.9,30.01,NW,315,0.9,2.0,51,0.00,,,0.00,WUHU216HW,2013-03-10 17:31:00,
2013-03-10 13:36:00,56.5,38.6,30.01,West,270,1.6,2.0,51,0.00,,,0.00,WUHU216HW,2013-03-10 17:36:00,
2013-03-10 13:41:00,57.6,39.7,30.01,WSW,248,1.1,3.4,51,0.00,,,0.00,WUHU216HW,2013-03-10 17:41:00,
2013-03-10 13:46:00,59.0,41.0,30.01,SW,225,2.5,3.4,51,0.00,,,0.00,WUHU216HW,2013-03-10 17:46:00,
2013-03-10 13:51:00,60.8,41.6,30.01,SSW,203,3.1,3.6,49,0.00,,,0.00,WUHU216HW,2013-03-10 17:51:00,
2013-03-10 13:56:00,61.4,40.9,30.00,NW,315,1.8,3.6,47,0.00,,,0.00,WUHU216HW,2013-03-10 17:56:00,
2013-03-10 14:01:00,59.8,37.1,30.00,West,270,2.0,3.8,43,0.00,,,0.00,WUHU216HW,2013-03-10 18:01:00,
2013-03-10 14:06:00,59.4,37.4,29.99,WNW,293,1.3,3.8,44,0.00,,,0.00,WUHU216HW,2013-03-10 18:06:00,
2013-03-10 14:11:00,60.7,39.7,29.98,WSW,248,1.6,3.4,46,0.00,,,0.00,WUHU216HW,2013-03-10 18:11:00,
2013-03-10 14:16:00,61.4,40.3,29.98,NNW,338,2.5,3.1,46,0.00,,,0.00,WUHU216HW,2013-03-10 18:16:00,
2013-03-10 14:21:00,61.9,39.6,29.99,NW,315,1.8,3.1,44,0.00,,,0.00,WUHU216HW,2013-03-10 18:21:00,
2013-03-10 14:26:00,62.1,38.6,30.00,WNW,293,1.3,3.1,42,0.00,,,0.00,WUHU216HW,2013-03-10 18:26:00,
2013-03-10 14:31:00,61.7,36.5,30.00,NNW,338,0.4,4.5,39,0.00,,,0.00,WUHU216HW,2013-03-10 18:31:00,
2013-03-10 14:36:00,61.6,38.7,30.00,WNW,293,2.7,4.5,43,0.00,,,0.00,WUHU216HW,2013-03-10 18:36:00,
2013-03-10 14:41:00,61.9,39.1,29.99,WNW,293,2.2,2.7,43,0.00,,,0.00,WUHU216HW,2013-03-10 18:41:00,
2013-03-10 14:46:00,61.9,35.9,30.00,NNW,338,3.4,3.4,38,0.00,,,0.00,WUHU216HW,2013-03-10 18:46:00,
2013-03-10 14:51:00,61.7,38.4,30.01,SW,225,0.4,3.4,42,0.00,,,0.00,WUHU216HW,2013-03-10 18:51:00,
2013-03-10 14:56:00,62.6,38.5,29.99,NNE,23,1.1,2.9,41,0.00,,,0.00,WUHU216HW,2013-03-10 18:56:00,
2013-03-10 15:01:00,62.3,36.9,29.99,SW,225,0.9,2.0,39,0.00,,,0.00,WUHU216HW,2013-03-10 19:01:00,
2013-03-10 15:06:00,62.3,35.5,29.99,SSW,203,0.9,2.5,37,0.00,,,0.00,WUHU216HW,2013-03-10 19:06:00,
2013-03-10 15:11:00,62.6,35.1,29.99,NE,45,1.6,4.0,36,0.00,,,0.00,WUHU216HW,2013-03-10 19:11:00,
2013-03-10 15:16:00,61.9,34.5,29.98,SE,135,1.6,4.0,36,0.00,,,0.00,WUHU216HW,2013-03-10 19:16:00,
2013-03-10 15:21:00,61.9,34.5,29.98,SSE,158,1.6,2.5,36,0.00,,,0.00,WUHU216HW,2013-03-10 19:21:00,
2013-03-10 15:26:00,62.1,36.1,29.98,WNW,293,0.4,2.5,38,0.00,,,0.00,WUHU216HW,2013-03-10 19:26:00,
2013-03-10 15:31:00,62.3,36.2,29.97,South,180,0.2,2.0,38,0.00,,,0.00,WUHU216HW,2013-03-10 19:31:00,
2013-03-10 15:36:00,62.5,37.1,29.97,South,180,0.9,3.1,39,0.00,,,0.00,WUHU216HW,2013-03-10 19:36:00,
2013-03-10 15:41:00,62.3,35.5,29.97,SSW,203,2.0,3.6,37,0.00,,,0.00,WUHU216HW,2013-03-10 19:41:00,
2013-03-10 15:46:00,62.3,35.5,29.97,SE,135,0.4,3.6,37,0.00,,,0.00,WUHU216HW,2013-03-10 19:46:00,
2013-03-10 15:51:00,62.3,36.2,29.96,ENE,68,1.1,2.5,38,0.00,,,0.00,WUHU216HW,2013-03-10 19:51:00,
2013-03-10 15:56:00,61.4,34.7,29.96,ESE,113,1.1,2.5,37,0.00,,,0.00,WUHU216HW,2013-03-10 19:56:00,
2013-03-10 16:01:00,60.5,34.6,29.97,ESE,113,0.7,2.0,38,0.00,,,0.00,WUHU216HW,2013-03-10 20:01:00,
2013-03-10 16:07:00,60.1,35.0,29.97,SE,135,0.4,2.0,39,0.00,,,0.00,WUHU216HW,2013-03-10 20:07:00,
2013-03-10 16:11:00,59.9,34.1,29.97,WSW,248,2.0,2.7,38,0.00,,,0.00,WUHU216HW,2013-03-10 20:11:00,
2013-03-10 16:17:00,59.8,32.6,29.97,ESE,113,1.1,3.1,36,0.00,,,0.00,WUHU216HW,2013-03-10 20:17:00,
2013-03-10 16:22:00,59.4,32.9,29.96,South,180,3.8,3.8,37,0.00,,,0.00,WUHU216HW,2013-03-10 20:22:00,
2013-03-10 16:27:00,59.2,33.5,29.96,SE,135,1.8,3.8,38,0.00,,,0.00,WUHU216HW,2013-03-10 20:27:00,
2013-03-10 16:32:00,58.7,33.0,29.96,ESE,113,1.1,3.4,38,0.00,,,0.00,WUHU216HW,2013-03-10 20:32:00,
2013-03-10 16:37:00,58.7,32.3,29.96,SSE,158,1.8,3.4,37,0.00,,,0.00,WUHU216HW,2013-03-10 20:37:00,
2013-03-10 16:42:00,58.7,33.8,29.96,SE,135,0.4,3.4,39,0.00,,,0.00,WUHU216HW,2013-03-10 20:42:00,
2013-03-10 16:47:00,58.5,32.9,29.96,NNE,23,1.1,4.0,38,0.00,,,0.00,WUHU216HW,2013-03-10 20:47:00,
2013-03-10 16:52:00,58.1,32.5,29.96,SSE,158,1.1,4.0,38,0.00,,,0.00,WUHU216HW,2013-03-10 20:52:00,
2013-03-10 16:57:00,58.0,32.4,29.96,East,90,1.1,2.2,38,0.00,,,0.00,WUHU216HW,2013-03-10 20:57:00,
2013-03-10 17:02:00,57.6,33.5,29.96,NNW,338,0.9,2.9,40,0.00,,,0.00,WUHU216HW,2013-03-10 21:02:00,
2013-03-10 17:07:00,57.4,33.8,29.96,SE,135,0.0,2.9,41,0.00,,,0.00,WUHU216HW,2013-03-10 21:07:00,
2013-03-10 17:12:00,57.4,33.8,29.97,SW,225,0.0,2.5,41,0.00,,,0.00,WUHU216HW,2013-03-10 21:12:00,
2013-03-10 17:17:00,57.6,34.0,29.97,SSE,158,0.0,2.5,41,0.00,,,0.00,WUHU216HW,2013-03-10 21:17:00,
2013-03-10 17:22:00,58.0,33.8,29.97,NE,45,0.7,2.0,40,0.00,,,0.00,WUHU216HW,2013-03-10 21:22:00,
2013-03-10 17:27:00,57.8,34.2,29.97,East,90,1.1,2.0,41,0.00,,,0.00,WUHU216HW,2013-03-10 21:27:00,
2013-03-10 17:32:00,57.2,34.3,29.98,SW,225,0.9,2.0,42,0.00,,,0.00,WUHU216HW,2013-03-10 21:32:00,
2013-03-10 17:37:00,56.5,33.6,29.98,SSW,203,0.9,3.1,42,0.00,,,0.00,WUHU216HW,2013-03-10 21:37:00,
2013-03-10 17:42:00,56.0,33.7,29.98,North,0,0.4,3.1,43,0.00,,,0.00,WUHU216HW,2013-03-10 21:42:00,
2013-03-10 17:47:00,55.6,33.9,29.98,SE,135,1.1,2.5,44,0.00,,,0.00,WUHU216HW,2013-03-10 21:47:00,
2013-03-10 17:52:00,55.4,33.2,29.98,South,180,1.3,2.0,43,0.00,,,0.00,WUHU216HW,2013-03-10 21:52:00,
2013-03-10 17:57:00,55.3,34.1,29.99,SSE,158,2.0,2.0,45,0.00,,,0.00,WUHU216HW,2013-03-10 21:57:00,
2013-03-10 18:02:00,54.9,33.9,29.99,ESE,113,0.9,2.0,45,0.00,,,0.00,WUHU216HW,2013-03-10 22:02:00,
2013-03-10 18:07:00,54.2,33.8,29.98,SSE,158,0.7,2.0,46,0.00,,,0.00,WUHU216HW,2013-03-10 22:07:00,
2013-03-10 18:12:00,54.0,33.6,29.99,NE,45,0.7,1.1,46,0.00,,,0.00,WUHU216HW,2013-03-10 22:12:00,
2013-03-10 18:17:00,53.8,33.4,29.99,SSE,158,0.0,1.6,46,0.00,,,0.00,WUHU216HW,2013-03-10 22:17:00,
2013-03-10 18:22:00,54.0,33.6,29.99,South,180,0.0,1.6,46,0.00,,,0.00,WUHU216HW,2013-03-10 22:22:00,
2013-03-10 18:27:00,54.0,35.2,29.99,SW,225,0.4,1.8,49,0.00,,,0.00,WUHU216HW,2013-03-10 22:27:00,
2013-03-10 18:32:00,54.2,34.8,29.99,SSW,203,0.0,1.8,48,0.00,,,0.00,WUHU216HW,2013-03-10 22:32:00,
2013-03-10 18:37:00,54.0,34.1,29.99,WSW,248,0.4,0.9,47,0.00,,,0.00,WUHU216HW,2013-03-10 22:37:00,
2013-03-10 18:42:00,53.8,33.4,29.99,South,180,0.4,0.9,46,0.00,,,0.00,WUHU216HW,2013-03-10 22:42:00,
2013-03-10 18:47:00,53.3,33.0,29.99,SW,225,0.9,2.0,46,0.00,,,0.00,WUHU216HW,2013-03-10 22:47:00,
2013-03-10 18:52:00,52.7,32.9,29.99,WSW,248,0.2,2.0,47,0.00,,,0.00,WUHU216HW,2013-03-10 22:52:00,
2013-03-10 18:57:00,52.2,32.5,30.00,SW,225,0.0,1.1,47,0.00,,,0.00,WUHU216HW,2013-03-10 22:57:00,
2013-03-10 19:02:00,51.5,31.9,29.99,SE,135,0.0,1.1,47,0.00,,,0.00,WUHU216HW,2013-03-10 23:02:00,
2013-03-10 19:08:00,50.9,32.5,29.99,ENE,68,0.4,1.3,49,0.00,,,0.00,WUHU216HW,2013-03-10 23:08:00,
2013-03-10 19:13:00,50.4,32.0,29.99,ENE,68,0.0,1.3,49,0.00,,,0.00,WUHU216HW,2013-03-10 23:13:00,
2013-03-10 19:18:00,50.2,31.9,30.00,SSE,158,1.3,1.8,49,0.00,,,0.00,WUHU216HW,2013-03-10 23:18:00,
2013-03-10 19:23:00,49.7,31.9,29.99,SE,135,0.0,1.8,50,0.00,,,0.00,WUHU216HW,2013-03-10 23:23:00,
2013-03-10 19:28:00,49.3,32.0,29.99,ENE,68,0.2,1.1,51,0.00,,,0.00,WUHU216HW,2013-03-10 23:28:00,
2013-03-10 19:33:00,49.0,31.1,29.99,NE,45,0.0,1.1,50,0.00,,,0.00,WUHU216HW,2013-03-10 23:33:00,
2013-03-10 19:38:00,48.6,30.8,29.99,ESE,113,0.0,0.9,50,0.00,,,0.00,WUHU216HW,2013-03-10 23:38:00,
2013-03-10 19:43:00,48.6,30.8,29.99,ENE,68,0.0,0.4,50,0.00,,,0.00,WUHU216HW,2013-03-10 23:43:00,
2013-03-10 19:48:00,48.4,31.1,29.99,ENE,68,0.0,0.7,51,0.00,,,0.00,WUHU216HW,2013-03-10 23:48:00,
2013-03-10 19:53:00,48.1,30.7,30.00,ENE,68,0.0,0.7,51,0.00,,,0.00,WUHU216HW,2013-03-10 23:53:00,
2013-03-10 19:58:00,47.9,30.6,30.00,ENE,68,0.0,0.7,51,0.00,,,0.00,WUHU216HW,2013-03-10 23:58:00,
2013-03-10 20:03:00,47.9,31.1,30.00,ENE,68,0.0,1.1,52,0.00,,,0.00,WUHU216HW,2013-03-11 00:03:00,
2013-03-10 20:08:00,47.5,30.7,30.00,SE,135,0.0,1.1,52,0.00,,,0.00,WUHU216HW,2013-03-11 00:08:00,
2013-03-10 20:13:00,47.5,30.7,30.00,SE,135,0.0,0.9,52,0.00,,,0.00,WUHU216HW,2013-03-11 00:13:00,
2013-03-10 20:18:00,47.2,30.3,30.00,SE,135,0.0,0.9,52,0.00,,,0.00,WUHU216HW,2013-03-11 00:18:00,
2013-03-10 20:23:00,47.2,30.8,30.00,SE,135,0.7,0.7,53,0.00,,,0.00,WUHU216HW,2013-03-11 00:23:00,
2013-03-10 20:28:00,46.8,30.5,30.00,North,0,0.4,0.7,53,0.00,,,0.00,WUHU216HW,2013-03-11 00:28:00,
2013-03-10 20:33:00,46.4,30.6,30.00,NNW,338,0.9,0.9,54,0.00,,,0.00,WUHU216HW,2013-03-11 00:33:00,
2013-03-10 20:38:00,46.1,30.7,30.00,NW,315,0.4,1.8,55,0.00,,,0.00,WUHU216HW,2013-03-11 00:38:00,
2013-03-10 20:43:00,46.1,30.7,30.00,WNW,293,0.9,1.8,55,0.00,,,0.00,WUHU216HW,2013-03-11 00:43:00,
2013-03-10 20:48:00,45.9,31.1,30.00,NW,315,0.0,1.1,56,0.00,,,0.00,WUHU216HW,2013-03-11 00:48:00,
2013-03-10 20:53:00,45.7,30.9,30.00,WSW,248,0.7,1.1,56,0.00,,,0.00,WUHU216HW,2013-03-11 00:53:00,
2013-03-10 20:58:00,45.5,31.1,30.00,NW,315,0.4,1.1,57,0.00,,,0.00,WUHU216HW,2013-03-11 00:58:00,
2013-03-10 21:03:00,45.4,31.0,30.00,NW,315,1.3,1.3,57,0.00,,,0.00,WUHU216HW,2013-03-11 01:03:00,
2013-03-10 21:08:00,45.0,30.7,30.00,NW,315,0.0,1.3,57,0.00,,,0.00,WUHU216HW,2013-03-11 01:08:00,
2013-03-10 21:13:00,44.6,29.9,30.00,WNW,293,0.0,1.1,56,0.00,,,0.00,WUHU216HW,2013-03-11 01:13:00,
2013-03-10 21:18:00,44.3,30.4,30.00,East,90,0.2,0.9,58,0.00,,,0.00,WUHU216HW,2013-03-11 01:18:00,
2013-03-10 21:23:00,44.3,30.4,30.00,East,90,0.0,0.9,58,0.00,,,0.00,WUHU216HW,2013-03-11 01:23:00,
2013-03-10 21:28:00,44.3,30.9,30.00,SE,135,0.0,0.9,59,0.00,,,0.00,WUHU216HW,2013-03-11 01:28:00,
2013-03-10 21:33:00,44.3,30.9,30.00,SE,135,0.4,0.9,59,0.00,,,0.00,WUHU216HW,2013-03-11 01:33:00,
2013-03-10 21:38:00,44.1,30.2,30.00,SE,135,0.0,0.4,58,0.00,,,0.00,WUHU216HW,2013-03-11 01:38:00,
2013-03-10 21:43:00,43.9,30.1,30.00,SE,135,0.0,0.4,58,0.00,,,0.00,WUHU216HW,2013-03-11 01:43:00,
2013-03-10 21:48:00,43.9,30.1,30.00,SE,135,0.0,0.0,58,0.00,,,0.00,WUHU216HW,2013-03-11 01:48:00,
2013-03-10 21:53:00,43.9,30.5,30.00,SE,135,0.0,0.0,59,0.00,,,0.00,WUHU216HW,2013-03-11 01:53:00,
2013-03-10 21:58:00,43.6,30.2,30.00,SE,135,0.0,0.0,59,0.00,,,0.00,WUHU216HW,2013-03-11 01:58:00,
2013-03-10 22:03:00,43.2,30.2,30.00,SE,135,0.0,0.7,60,0.00,,,0.00,WUHU216HW,2013-03-11 02:03:00,
2013-03-10 22:08:00,43.0,30.1,30.00,SE,135,0.0,0.7,60,0.00,,,0.00,WUHU216HW,2013-03-11 02:08:00,
2013-03-10 22:13:00,43.0,30.4,30.00,WNW,293,0.0,1.1,61,0.00,,,0.00,WUHU216HW,2013-03-11 02:13:00,
2013-03-10 22:18:00,42.8,31.1,30.00,ESE,113,0.4,1.1,63,0.00,,,0.00,WUHU216HW,2013-03-11 02:18:00,
2013-03-10 22:23:00,42.5,30.3,30.00,ESE,113,0.0,0.4,62,0.00,,,0.00,WUHU216HW,2013-03-11 02:23:00,
2013-03-10 22:28:00,42.1,30.8,29.99,ESE,113,0.9,0.9,64,0.00,,,0.00,WUHU216HW,2013-03-11 02:28:00,
2013-03-10 22:33:00,42.1,30.8,29.99,ESE,113,0.0,0.9,64,0.00,,,0.00,WUHU216HW,2013-03-11 02:33:00,
2013-03-10 22:38:00,42.1,30.4,30.00,NNW,338,0.0,0.7,63,0.00,,,0.00,WUHU216HW,2013-03-11 02:38:00,
2013-03-10 22:43:00,42.1,30.4,30.00,South,180,0.0,1.1,63,0.00,,,0.00,WUHU216HW,2013-03-11 02:43:00,
2013-03-10 22:48:00,42.1,30.4,30.01,South,180,0.2,1.1,63,0.00,,,0.00,WUHU216HW,2013-03-11 02:48:00,
2013-03-10 22:53:00,41.8,30.1,30.01,South,180,0.0,0.7,63,0.00,,,0.00,WUHU216HW,2013-03-11 02:53:00,
2013-03-10 22:58:00,41.4,30.2,30.01,South,180,0.0,0.7,64,0.00,,,0.00,WUHU216HW,2013-03-11 02:58:00,
2013-03-10 23:03:00,41.2,29.5,30.01,South,180,0.0,0.7,63,0.00,,,0.00,WUHU216HW,2013-03-11 03:03:00,
2013-03-10 23:08:00,41.0,30.5,30.00,South,180,0.0,0.0,66,0.00,,,0.00,WUHU216HW,2013-03-11 03:08:00,
2013-03-10 23:13:00,40.9,29.6,30.00,South,180,0.0,0.0,64,0.00,,,0.00,WUHU216HW,2013-03-11 03:13:00,
2013-03-10 23:18:00,40.7,29.8,29.99,South,180,0.0,0.9,65,0.00,,,0.00,WUHU216HW,2013-03-11 03:18:00,
2013-03-10 23:23:00,40.7,30.2,29.99,South,180,0.0,0.9,66,0.00,,,0.00,WUHU216HW,2013-03-11 03:23:00,
2013-03-10 23:28:00,40.5,30.0,29.99,South,180,0.0,0.9,66,0.00,,,0.00,WUHU216HW,2013-03-11 03:28:00,
2013-03-10 23:33:00,40.5,30.0,29.99,South,180,0.0,0.7,66,0.00,,,0.00,WUHU216HW,2013-03-11 03:33:00,
2013-03-10 23:38:00,40.3,29.8,29.99,South,180,0.0,0.0,66,0.00,,,0.00,WUHU216HW,2013-03-11 03:38:00,
2013-03-10 23:43:00,40.1,29.6,29.99,South,180,0.0,0.9,66,0.00,,,0.00,WUHU216HW,2013-03-11 03:43:00,
2013-03-10 23:48:00,40.0,29.8,29.99,South,180,0.7,0.9,67,0.00,,,0.00,WUHU216HW,2013-03-11 03:48:00,
2013-03-10 23:53:00,40.0,29.4,29.99,South,180,0.0,1.1,66,0.00,,,0.00,WUHU216HW,2013-03-11 03:53:00,
2013-03-10 23:58:00,39.6,29.1,29.99,South,180,0.4,1.1,66,0.00,,,0.00,WUHU216HW,2013-03-11 03:58:00,